• In Hungary
  • List of Countries
  • For 7 days
  • Water Temperature
  • Satellite Maps
  • Weather Map
  • News
  • Weather Widgets
  • user-avatar
    Login

    Hourly Weather Reno

    Today, 17 December, Sunday

    Time Temperature Precipitation Wind Pressure Humidity
    00:00 -3°C° 0 mm 2 mps 644 mmHg 66%
    01:00 -3°C° 0 mm 2 mps 644 mmHg 66%
    02:00 -3°C° 0 mm 2 mps 644 mmHg 66%
    03:00 -3°C° 0 mm 2 mps 644 mmHg 65%
    04:00 -3°C° 0 mm 2 mps 644 mmHg 65%
    05:00 -3°C° 0 mm 2 mps 644 mmHg 64%
    06:00 -3°C° 0 mm 2 mps 644 mmHg 63%
    07:00 -3°C° 0 mm 2 mps 645 mmHg 62%
    08:00 -2°C° 0 mm 2 mps 645 mmHg 55%
    09:00 -1°C° 0 mm 2 mps 645 mmHg 48%
    10:00 +2°C° 0 mm 2 mps 645 mmHg 40%
    11:00 +3°C° 0 mm 2 mps 645 mmHg 37%
    12:00 +4°C° 0 mm 2 mps 645 mmHg 34%
    13:00 +5°C° 0 mm 2 mps 645 mmHg 30%
    14:00 +4°C° 0 mm 2 mps 645 mmHg 33%
    15:00 +4°C° 0 mm 2 mps 644 mmHg 35%
    16:00 +4°C° 0 mm 1 mps 644 mmHg 38%
    17:00 +4°C° 0 mm 1 mps 645 mmHg 40%
    18:00 +3°C° 0 mm 1 mps 645 mmHg 43%
    19:00 +2°C° 0 mm 1 mps 645 mmHg 45%
    20:00 +2°C° 0 mm 1 mps 645 mmHg 45%
    21:00 +2°C° 0 mm 1 mps 645 mmHg 45%
    22:00 +2°C° 0 mm 1 mps 645 mmHg 45%
    23:00 +2°C° 0 mm 1 mps 645 mmHg 45%

    Tomorrow, 18 December, Monday

    Time Temperature Precipitation Wind Pressure Humidity
    00:00 +2°C° 0 mm 1 mps 645 mmHg 46%
    01:00 +2°C° 0 mm 1 mps 645 mmHg 46%
    02:00 +3°C° 0 mm 1 mps 645 mmHg 47%
    03:00 +3°C° 0 mm 1 mps 645 mmHg 48%
    04:00 +3°C° 0 mm 1 mps 645 mmHg 49%
    05:00 +3°C° 0 mm 1 mps 645 mmHg 49%
    06:00 +3°C° 0 mm 1 mps 645 mmHg 50%
    07:00 +3°C° 0 mm 1 mps 646 mmHg 50%
    08:00 +5°C° 0 mm 1 mps 646 mmHg 46%
    09:00 +7°C° 0 mm 1 mps 647 mmHg 42%
    10:00 +9°C° 0 mm 1 mps 648 mmHg 37%
    11:00 +10°C° 0 mm 1 mps 648 mmHg 36%
    12:00 +11°C° 0 mm 1 mps 648 mmHg 35%
    13:00 +12°C° 0 mm 1 mps 648 mmHg 35%
    14:00 +11°C° 0 mm 1 mps 647 mmHg 40%
    15:00 +8°C° 0 mm 0 mps 647 mmHg 46%
    16:00 +7°C° 0 mm 0 mps 646 mmHg 52%
    17:00 +7°C° 0 mm 1 mps 646 mmHg 55%
    18:00 +6°C° 0 mm 1 mps 646 mmHg 59%
    19:00 +5°C° 0 mm 1 mps 646 mmHg 62%
    20:00 +4°C° 0 mm 1 mps 646 mmHg 63%
    21:00 +4°C° 0 mm 1 mps 646 mmHg 65%
    22:00 +4°C° 0 mm 1 mps 646 mmHg 66%
    23:00 +4°C° 0 mm 1 mps 646 mmHg 66%

    Day after tomorrow, 19 December, Tuesday

    Time Temperature Precipitation Wind Pressure Humidity
    00:00 +4°C° 0 mm 1 mps 646 mmHg 67%
    01:00 +4°C° 0 mm 1 mps 646 mmHg 67%
    02:00 +3°C° 0 mm 2 mps 646 mmHg 64%
    03:00 +3°C° 0 mm 2 mps 646 mmHg 61%
    04:00 +3°C° 0 mm 2 mps 645 mmHg 58%
    05:00 +3°C° 0 mm 2 mps 646 mmHg 55%
    06:00 +3°C° 0 mm 2 mps 646 mmHg 53%
    07:00 +3°C° 0 mm 2 mps 646 mmHg 50%
    08:00 +5°C° 0 mm 2 mps 646 mmHg 45%
    09:00 +8°C° 0 mm 2 mps 647 mmHg 40%
    10:00 +10°C° 0 mm 2 mps 647 mmHg 34%
    11:00 +12°C° 0 mm 2 mps 647 mmHg 32%
    12:00 +12°C° 0 mm 3 mps 647 mmHg 30%
    13:00 +13°C° 0 mm 3 mps 647 mmHg 28%
    14:00 +12°C° 0 mm 3 mps 646 mmHg 33%
    15:00 +10°C° 0 mm 2 mps 645 mmHg 38%
    16:00 +9°C° 0 mm 2 mps 645 mmHg 43%
    17:00 +8°C° 0 mm 3 mps 645 mmHg 47%
    18:00 +5°C° 0 mm 3 mps 644 mmHg 51%
    19:00 +4°C° 0 mm 3 mps 644 mmHg 55%
    20:00 +4°C° 0 mm 3 mps 644 mmHg 55%
    21:00 +3°C° 0 mm 4 mps 644 mmHg 54%
    22:00 +3°C° 0 mm 4 mps 644 mmHg 53%
    23:00 +3°C° 0 mm 4 mps 643 mmHg 52%

    20 December, Wednesday

    Time Temperature Precipitation Wind Pressure Humidity
    00:00 +2°C° 0 mm 5 mps 643 mmHg 52%
    01:00 +2°C° 0 mm 5 mps 642 mmHg 51%
    02:00 +2°C° 0 mm 6 mps 642 mmHg 51%
    03:00 +2°C° 0 mm 6 mps 642 mmHg 50%
    04:00 +2°C° 0 mm 7 mps 641 mmHg 49%
    05:00 +2°C° 0 mm 7 mps 641 mmHg 51%
    06:00 +1°C° 0 mm 8 mps 641 mmHg 53%
    07:00 +1°C° 0 mm 8 mps 641 mmHg 55%
    08:00 +1°C° 0.6 mm 8 mps 641 mmHg 60%
    09:00 +1°C° 0.6 mm 8 mps 641 mmHg 66%
    10:00 +1°C° 0.6 mm 8 mps 642 mmHg 72%
    11:00 0°C° 0.8 mm 7 mps 642 mmHg 75%
    12:00 -1°C° 0.8 mm 6 mps 642 mmHg 79%
    13:00 -2°C° 0.8 mm 5 mps 642 mmHg 83%
    14:00 -2°C° 0.1 mm 4 mps 643 mmHg 79%
    15:00 -1°C° 0.1 mm 3 mps 643 mmHg 76%
    16:00 -2°C° 0.1 mm 2 mps 644 mmHg 73%
    17:00 -3°C° 0 mm 2 mps 644 mmHg 75%
    18:00 -4°C° 0 mm 2 mps 644 mmHg 77%
    19:00 -3°C° 0 mm 1 mps 645 mmHg 80%
    20:00 -5°C° 0 mm 2 mps 645 mmHg 79%
    21:00 -5°C° 0 mm 2 mps 645 mmHg 78%
    22:00 -5°C° 0 mm 2 mps 645 mmHg 77%
    23:00 -5°C° 0 mm 2 mps 645 mmHg 78%

    21 December, Thursday

    Time Temperature Precipitation Wind Pressure Humidity
    00:00 -5°C° 0 mm 2 mps 646 mmHg 79%
    01:00 -5°C° 0 mm 2 mps 646 mmHg 79%
    02:00 -5°C° 0 mm 2 mps 646 mmHg 80%
    03:00 -5°C° 0 mm 2 mps 646 mmHg 82%
    04:00 -5°C° 0 mm 2 mps 646 mmHg 83%
    05:00 -6°C° 0 mm 2 mps 647 mmHg 83%
    06:00 -4°C° 0 mm 1 mps 647 mmHg 83%
    07:00 -4°C° 0 mm 1 mps 647 mmHg 83%
    08:00 -3°C° 0 mm 1 mps 647 mmHg 75%
    09:00 -1°C° 0 mm 1 mps 648 mmHg 68%
    10:00 -2°C° 0 mm 2 mps 648 mmHg 61%
    11:00 +1°C° 0 mm 1 mps 648 mmHg 56%
    12:00 +2°C° 0 mm 1 mps 648 mmHg 52%
    13:00 +3°C° 0 mm 1 mps 648 mmHg 48%
    14:00 +2°C° 0 mm 1 mps 648 mmHg 51%
    15:00 +2°C° 0 mm 1 mps 648 mmHg 53%
    16:00 +1°C° 0 mm 1 mps 647 mmHg 56%
    17:00 0°C° 0 mm 1 mps 648 mmHg 59%
    18:00 -1°C° 0 mm 1 mps 648 mmHg 62%
    19:00 -2°C° 0 mm 1 mps 648 mmHg 65%
    20:00 -2°C° 0 mm 1 mps 648 mmHg 63%
    21:00 -2°C° 0 mm 1 mps 648 mmHg 62%
    22:00 -2°C° 0 mm 1 mps 648 mmHg 61%
    23:00 -4°C° 0 mm 2 mps 648 mmHg 59%

    22 December, Friday

    Time Temperature Precipitation Wind Pressure Humidity
    00:00 -3°C° 0 mm 2 mps 648 mmHg 58%
    01:00 -3°C° 0 mm 2 mps 648 mmHg 56%
    02:00 -1°C° 0 mm 1 mps 648 mmHg 54%
    03:00 -1°C° 0 mm 1 mps 648 mmHg 52%
    04:00 -1°C° 0 mm 1 mps 648 mmHg 50%
    05:00 -1°C° 0 mm 1 mps 648 mmHg 49%
    06:00 -1°C° 0 mm 1 mps 648 mmHg 47%
    07:00 -1°C° 0 mm 1 mps 648 mmHg 46%
    08:00 +2°C° 0 mm 1 mps 649 mmHg 43%
    09:00 +4°C° 0 mm 1 mps 649 mmHg 39%
    10:00 +6°C° 0 mm 1 mps 650 mmHg 36%
    11:00 +7°C° 0 mm 1 mps 650 mmHg 36%
    12:00 +8°C° 0 mm 1 mps 649 mmHg 36%
    13:00 +9°C° 0 mm 1 mps 649 mmHg 37%
    14:00 +7°C° 0 mm 0 mps 649 mmHg 43%
    15:00 +5°C° 0 mm 0 mps 648 mmHg 50%
    16:00 +4°C° 0 mm 0 mps 648 mmHg 56%
    17:00 +3°C° 0 mm 0 mps 648 mmHg 57%
    18:00 +3°C° 0 mm 0 mps 648 mmHg 58%
    19:00 +2°C° 0 mm 0 mps 648 mmHg 59%
    20:00 +2°C° 0 mm 0 mps 648 mmHg 55%
    21:00 +3°C° 0 mm 1 mps 649 mmHg 52%
    22:00 +3°C° 0 mm 1 mps 649 mmHg 49%
    23:00 +3°C° 0 mm 1 mps 649 mmHg 47%
    Show more